This is the latest recevied weather packets stored in our database for station/object W2JBO-5. If no packets are shown the sender has not sent any weather packets the latest 10 day(s).
| Time | Temp. | Humidity | Pressure | Rain* | Wind** | Luminosity | Snow |
|---|---|---|---|---|---|---|---|
| 1777731666 | 17.22° C | 89% | 1016.8 hPa | 0 mm | - | 468 W/m² | - |
| 1777731363 | 16.11° C | 91% | 1016.8 hPa | 0 mm | - | 513 W/m² | - |
| 1777731061 | 16.11° C | 92% | 1016.8 hPa | 0 mm | - | 544 W/m² | - |
| 1777730759 | 15.56° C | 96% | 1016.9 hPa | 0 mm | - | 508 W/m² | - |
| 1777730455 | 15° C | 98% | 1016.9 hPa | 0 mm | - | 434 W/m² | - |
| 1777730151 | 15° C | 99% | 1016.9 hPa | 0 mm | - | 405 W/m² | - |
| 1777729848 | 15° C | 99% | 1016.4 hPa | 0 mm | - | 378 W/m² | - |
| 1777729544 | 14.44° C | 99% | 1016.4 hPa | 0 mm | - | 359 W/m² | - |
| 1777729241 | 14.44° C | 99% | 1016.4 hPa | 0 mm | - | 331 W/m² | - |
| 1777728938 | 13.89° C | 99% | 1016.4 hPa | 0 mm | - | 293 W/m² | - |
| 1777728635 | 14.44° C | 99% | 1016.4 hPa | 0 mm | - | 302 W/m² | - |
| 1777728332 | 13.89° C | 99% | 1016.4 hPa | 0 mm | - | 282 W/m² | - |
| 1777728029 | 13.89° C | 99% | 1016.4 hPa | 0 mm | - | 261 W/m² | - |
| 1777727726 | 13.89° C | 99% | 1016.4 hPa | 0 mm | - | 253 W/m² | - |
| 1777727423 | 13.89° C | 99% | 1016.3 hPa | 0 mm | - | 232 W/m² | - |
| 1777727120 | 13.33° C | 99% | 1016.3 hPa | 0 mm | - | 207 W/m² | - |
| 1777726818 | 13.33° C | 99% | 1016.3 hPa | 0 mm | - | 105 W/m² | - |
| 1777726514 | 12.78° C | 99% | 1016.4 hPa | 0 mm | - | 111 W/m² | - |
| 1777726212 | 12.78° C | 99% | 1016.1 hPa | 0 mm | - | 82 W/m² | - |
| 1777725908 | 12.78° C | 99% | 1016.1 hPa | 0 mm | - | 78 W/m² | - |
| 1777725606 | 12.78° C | 99% | 1016.1 hPa | 0 mm | - | 80 W/m² | - |
| 1777725303 | 12.78° C | 99% | 1015.8 hPa | 0 mm | - | 64 W/m² | - |
| 1777725000 | 12.78° C | 99% | 1015.8 hPa | 0 mm | - | 66 W/m² | - |
| 1777724696 | 12.78° C | 99% | 1015.8 hPa | 0 mm | - | 59 W/m² | - |
| 1777724394 | 12.78° C | 99% | 1015.8 hPa | 0 mm | - | 48 W/m² | - |
* Rain latest hour (hover to see other rain measurements)
** Current wind speed in m/s (hover to see current wind gust speed)